H-2A DEB

Satellite information

Favourite Embed

Satellite Type and Status

DEBRISDECAYED

Key statistics

Satellite H-2A DEB at a glance.

Uptime

451

Days in orbit

Revolutions

≈ 15.1

Per day

Orbit

LEO

Low Earth Orbit

Inclination

31.0

Latest

Satellite identification and parameters

Extended collection of information and parameters for H-2A DEB.

Object identification

Identified? True

Debris? True

Object name: H-2A DEB

International designator: 2023-137F

Object number (NORAD): 57805

Object ID (CCSDS): 57805

Country: JAPAN (JPN)

Current information (Y/N): Y

RCS size: LARGE

Orbital parameters

Decay date: Nov. 30, 2024

Period: 95.617 minutes

Inclination: 30.9982 deg

SMA: 6926.532 km

Apoapsis: 554.818 km

Periapsis: 541.975 km

RAAN: 92.7346 deg

Eccentricy: 0.0009271

Argument of periapsis: 45.8014 deg

Mean anomaly: 314.3383 deg

Mean motion: 15.06014005 rev/day

Mean motion (dot): 0.00034694 rev/day2

B* drag term: 0.0023063 1/REarth

Two-line elements (TLE)

Creation date: Feb. 11, 2024, 5:15 p.m.

Reference frame: TEME

Reference center: EARTH

Epoch: Feb. 11, 2024, 1:40 p.m. UTC

TLE line 0: 0 H-2A DEB

TLE line 1: 1 57805U 23137F 24042.56963266 .00034694 00000-0 23063-2 0 9998

TLE line 2: 2 57805 30.9982 92.7346 0009271 45.8014 314.3383 15.06014005 23631

Live tracking on map

Satellite H-2A DEB has decayed and is no longer in orbit. No tracking available.

In-orbit conjunctions

Satellite H-2A DEB has decayed and is no longer in orbit. No conjunctions available.

Associated space launch

X-Ray Imaging and Spectroscopy Mission (XRISM), formerly the X-Ray Astronomy Recovery Mission (XARM), is a replacement for the Hitomi satellite that malfunctioned few weeks after the launch. Smart Lander for Investigating Moon (SLIM) is a lunar probe that will target a landing on a small crater in Mare Nectaris, an area located near the moon's equator on the side facing Earth.

H-2A DEB was lifted into orbit during the mission ‘H-IIA 202 | XRISM & SLIM’, on board a H-IIA space rocket.

The launch took place on Sept. 6, 2023, 11:42 p.m. from Yoshinobu Launch Complex LP-1.

For more information about the launch, click the button.

Launch to space H-IIA 202 | XRISM & SLIM
H-IIA 202 | XRISM & SLIM

Agency: Japan Aerospace Exploration Agency

Status: Launch Successful

Launch date: Sept. 6, 2023, 11:42 p.m. UTC

Rocket: H-IIA

Launch pad: Yoshinobu Launch Complex LP-1

Location: Tanegashima Space Center, Japan

...

Latest news about this satellite

News about space launch
NASA, JAXA XRISM Mission Looks Deeply Into ‘Hidden’ Stellar System

The Japan-led XRISM (X-ray Imaging and Spectroscopy Mission) observatory has captured the most detailed portrait yet of gases flowing within Cygnus X-3, one of the most studied sources in the X-ray sky. Cygnus X-3 is a binary that pairs a rare type of hig...

News about space launch
One year into mission, XRISM reveals movements of cosmic material around supernova remnant and black hole

In September 2023, the joint Japan Aerospace Exploration Agency (JAXA), European Space Agency (ESA), and NASA X-Ray Imaging and Spectroscopy Mission (XRISM) telescope launched into low-Earth orbit atop a Japanese H-IIA rocket. Since then, the X-ray telesc...

News about space launch
XRISM unveils black hole and supernova remnant surroundings

XRISM revealed the structure, motion and temperature of the material around a supermassive black hole and in a supernova remnant in unprecedented detail. Astronomers presented the first scientific results of the new X-ray telescope today, less than a year...


Newsletter sign-up

Weekly statistics, charts and insights to help you stay on top of the space industry.